This demonstration page uses our WeatherBlox Daily Observations layout. Learn more.

41.55636, -103.73856

Hourly Observations for January 19, 2019

Temp ( °F °C ) Dew Point ( °F °C ) Humidity (%) Winds ( mph kmh ) Pressure ( in mb ) Visibility ( mi km ) Precip ( " mm )
12:17 am 00:17 Mostly Cloudy 19 -7.2 18 -7.8 96 96 SE 5 7 30.39 1029 10 16.09344 0 0
12:40 am 00:40 Mostly Cloudy 19 -7 18 -8 93 93 SE 6 9 30.45 1031 10 16.09344 0 0
12:49 am 00:49 Mostly Cloudy 19 -7 19 -7 100 100 SSE 5 7 30.45 1031 10 16.09344 0 0
12:53 am 00:53 Cloudy 20 -6.7 19 -7.2 96 96 SSE 3 6 30.33 1027 10 16.09344 0 0
1:53 am 01:53 Cloudy 21 -6.1 20 -6.7 96 96 SE 6 9 30.3 1026 8 12.874752 0 0
2:23 am 02:23 Cloudy 21 -6.1 20 -6.7 96 96 ESE 7 11 30.42 1030 8 12.874752 0 0
2:53 am 02:53 Cloudy 20 -6.7 20 -6.7 100 100 E 6 9 30.3 1026 8 12.874752 0 0
3:09 am 03:09 Cloudy with Mist and Fog 20 -6.7 20 -6.7 100 100 E 5 7 30.42 1030 6 9.656064 0 0
3:26 am 03:26 Cloudy with Mist and Fog 19 -7 19 -7 100 100 ESE 3 6 30.45 1031 1.75 2.816352 0 0
3:53 am 03:53 Cloudy with Mist and Fog 20 -6.7 20 -6.7 100 100 SE 6 9 30.3 1026 1 1.609344 0 0
4:21 am 04:21 Mostly Cloudy with Freezing Fog 20 -6.7 20 -6.7 100 100 SE 3 6 30.42 1030 0.5 0.804672 0 0
4:53 am 04:53 Cloudy with Mist and Fog 20 -6.7 20 -6.7 100 100 S 3 6 30.3 1026 1.25 2.01168 0 0
5:06 am 05:06 Mostly Cloudy with Mist and Fog 19 -7 19 -7 100 100 S 3 6 30.45 1031 0.75 1.207008 0 0
5:22 am 05:22 Mostly Cloudy with Freezing Fog 19 -7 19 -7 100 100 Calm 30.45 1031 0.25 0.402336 0 0
5:29 am 05:29 Mostly Cloudy with Freezing Fog 20 -6.7 20 -6.7 100 100 Calm 30.42 1030 0.5 0.804672 0 0
5:40 am 05:40 Mostly Cloudy with Freezing Fog 20 -6.7 20 -6.7 100 100 Calm 30.42 1030 0.25 0.402336 0 0
5:53 am 05:53 Mostly Cloudy with Freezing Fog 20 -6.7 20 -6.7 100 100 Calm 30.33 1027 0.25 0.402336 0 0
6:53 am 06:53 Mostly Cloudy with Freezing Fog 20 -6.7 20 -6.7 100 100 Calm 30.33 1027 0.25 0.402336 0 0
7:53 am 07:53 Mostly Cloudy with Freezing Fog 20 -6.7 19 -7.2 96 96 NNW 3 6 30.3 1026 0.25 0.402336 0 0
8:40 am 08:40 Mostly Cloudy with Freezing Fog 19 -7 18 -8 93 93 N 3 6 30.45 1031 0.5 0.804672 0 0
8:53 am 08:53 Mostly Cloudy with Mist and Fog 22 -5.6 20 -6.7 92 92 Calm 30.27 1025 1.75 2.816352 0 0
8:56 am 08:56 Mostly Cloudy with Mist and Fog 21 -6 19 -7 93 93 Calm 30.42 1030 3 4.828032 0 0
9:08 am 09:08 Partly Cloudy 25 -4 21 -6 86 86 NNW 3 6 30.39 1029 8 12.874752 0 0
9:53 am 09:53 Sunny 26 -3.3 24 -4.4 92 92 Calm 30.3 1026 10 16.09344 0 0
10:53 am 10:53 Sunny 38 3.3 24 -4.4 57 57 WNW 12 19 30.24 1024 10 16.09344 0 0
11:53 am 11:53 Sunny 44 6.7 24 -4.4 45 45 W 9 15 30.18 1022 10 16.09344 0 0
12:53 pm 12:53 Sunny 48 8.9 21 -6.1 34 34 W 13 20 30.15 1021 10 16.09344 0 0
1:53 pm 13:53 Sunny 47 8.3 21 -6.1 36 36 W 17 28 30.12 1020 10 16.09344 0 0
2:53 pm 14:53 Sunny 46 7.8 22 -5.6 38 38 WNW 17 28 30.12 1020 10 16.09344 0 0
3:53 pm 15:53 Sunny 44 6.7 22 -5.6 41 41 W 20 31 30.12 1020 10 16.09344 0 0
4:53 pm 16:53 Clear 42 5.6 24 -4.4 49 49 WNW 10 17 30.12 1020 10 16.09344 0 0
5:53 pm 17:53 Clear 40 4.4 24 -4.4 53 53 W 10 17 30.15 1021 10 16.09344 0 0
6:53 pm 18:53 Clear 39 3.9 24 -4.4 55 55 W 12 19 30.15 1021 10 16.09344 0 0
7:53 pm 19:53 Clear 37 2.8 24 -4.4 59 59 W 12 19 30.15 1021 10 16.09344 0 0
8:53 pm 20:53 Clear 36 2.2 24 -4.4 62 62 W 8 13 30.15 1021 10 16.09344 0 0
9:53 pm 21:53 Clear 33 0.6 24 -4.4 70 70 WNW 8 13 30.12 1020 10 16.09344 0 0
10:53 pm 22:53 Clear 28 -2.2 22 -5.6 78 78 WNW 6 9 30.12 1020 10 16.09344 0 0
11:53 pm 23:53 Clear 28 -2.2 22 -5.6 78 78 NNW 7 11 30.06 1018 10 16.09344 0 0

Powered by AerisWeather